DW6455 Orivesi FI current weather conditions

sailwx.info

Wind at 2 knots gusting 6

Air temperature 12.8° C
Dewpoint 12.3° C

Last reported at 2014-Aug-27 22:52 UTC.
Time now 2014-Aug-27 23:20 UTC

Location: N 61°39' E 024°21'.
View on Google Maps.

See reports from other nearby stations

  
Tides and Currents Weather Stations Pressure Air Temp Water Temp Dewpoint Dewpoint Depression Visibility Wind Speed Wind Dir Waves Ship Positions
date/time (UTC)wind fromknots sea level pressurealtimeterstation pressurevisibilityair tempwater tempwave heightnotes
2014-Aug-27 22:52 12.8
2014-Aug-27 22:47 12.8
2014-Aug-27 22:42 327 2 gusting 6 12.8
2014-Aug-27 22:37 015 2 gusting 8 12.8
2014-Aug-27 22:32 351 3 gusting 8 12.8
2014-Aug-27 22:27 355 4 gusting 8 12.8
2014-Aug-27 22:22 12.8
2014-Aug-27 22:17 355 4 gusting 10 12.8
2014-Aug-27 22:12 355 5 gusting 10 12.8
2014-Aug-27 22:07 013 5 gusting 9 12.8
2014-Aug-27 22:02 344 4 gusting 10 12.8
2014-Aug-27 21:57 12.8
2014-Aug-27 21:52 12.8
2014-Aug-27 21:47 030 4 gusting 11 12.8
2014-Aug-27 21:42 324 4 gusting 10 12.8
2014-Aug-27 21:37 355 4 gusting 10 12.8
2014-Aug-27 21:32 346 4 gusting 8 12.8
2014-Aug-27 21:27 351 3 gusting 8 12.8
2014-Aug-27 21:22 331 3 gusting 8 12.8
2014-Aug-27 21:17 009 3 gusting 8 12.8
2014-Aug-27 21:12 346 3 gusting 8 12.8
2014-Aug-27 21:07 338 3 gusting 8 12.8
2014-Aug-27 21:02 346 3 gusting 8 12.8
2014-Aug-27 20:57 005 4 gusting 8 12.8
2014-Aug-27 20:52 12.8
2014-Aug-27 20:47 12.8
2014-Aug-27 20:42 355 3 gusting 9 12.8
2014-Aug-27 20:37 12.8
2014-Aug-27 20:32 024 5 gusting 13 13.3
2014-Aug-27 20:27 350 4 gusting 13 13.3
2014-Aug-27 20:22 13.3
2014-Aug-27 20:17 343 6 gusting 13 13.3
2014-Aug-27 20:12 13.3
2014-Aug-27 20:07 13.3
2014-Aug-27 20:02 349 5 gusting 12 13.3
2014-Aug-27 19:57 344 5 gusting 12 13.3
2014-Aug-27 19:52 335 5 gusting 12 13.3
2014-Aug-27 19:47 355 5 gusting 12 13.3
2014-Aug-27 19:42 13.3
2014-Aug-27 19:37 019 6 gusting 15 13.3
2014-Aug-27 19:32 13.3
2014-Aug-27 19:27 337 6 gusting 15 13.3
2014-Aug-27 19:22 344 6 gusting 14 13.9
2014-Aug-27 19:17 348 6 gusting 14 13.9
2014-Aug-27 19:12 13.9
2014-Aug-27 19:07 13.9
2014-Aug-27 19:02 306 4 gusting 11 13.9
2014-Aug-27 18:57 346 4 gusting 11 13.9
2014-Aug-27 18:52 005 5 gusting 13 13.9
2014-Aug-27 18:47 341 5 gusting 13 13.9
2014-Aug-27 18:42 340 6 gusting 13 13.9
2014-Aug-27 18:37 331 6 gusting 11 13.9
2014-Aug-27 18:32 320 6 gusting 13 13.9
2014-Aug-27 18:27 333 5 gusting 13 13.9
2014-Aug-27 18:22 355 5 gusting 13 13.9
2014-Aug-27 18:17 333 5 gusting 13 13.9
2014-Aug-27 18:12 329 5 gusting 13 14.4
2014-Aug-27 18:07 331 5 gusting 13 14.4
2014-Aug-27 18:02 327 5 gusting 13 14.4
2014-Aug-27 17:57 022 4 gusting 13 14.4
2014-Aug-27 17:52 344 5 gusting 13 14.4
2014-Aug-27 17:47 324 5 gusting 13 14.4
2014-Aug-27 17:42 333 4 gusting 13 14.4
2014-Aug-27 17:37 009 4 gusting 11 14.4
2014-Aug-27 17:32 355 4 gusting 11 14.4
2014-Aug-27 17:27 345 4 gusting 11 14.4
2014-Aug-27 17:22 334 4 gusting 12 14.4
2014-Aug-27 17:17 338 5 gusting 12 14.4
2014-Aug-27 17:12 347 4 gusting 12 14.4
2014-Aug-27 17:07 339 3 gusting 9 14.4
2014-Aug-27 17:02 14.4
2014-Aug-27 16:57 333 4 gusting 12 14.4
2014-Aug-27 16:52 341 5 gusting 12 14.4
2014-Aug-27 16:47 14.4
2014-Aug-27 16:42 340 6 gusting 12 14.4
2014-Aug-27 16:37 334 6 gusting 12 15.0
2014-Aug-27 16:32 355 6 gusting 13 15.0
2014-Aug-27 16:27 344 5 gusting 13 15.0
2014-Aug-27 16:22 333 5 gusting 13 15.0
2014-Aug-27 16:17 355 6 gusting 13 15.0
2014-Aug-27 16:12 328 5 gusting 13 15.0
2014-Aug-27 16:07 339 6 gusting 13 15.0
2014-Aug-27 16:02 15.0
2014-Aug-27 15:57 331 5 gusting 14 15.0
2014-Aug-27 15:52 15.0
2014-Aug-27 15:47 350 6 gusting 11 15.0
2014-Aug-27 15:42 005 5 gusting 16 15.6
2014-Aug-27 15:37 032 5 gusting 16 15.6
2014-Aug-27 15:32 355 6 gusting 16 15.6
2014-Aug-27 15:27 15.6
2014-Aug-27 15:22 005 6 gusting 12 16.1
2014-Aug-27 15:17 019 5 gusting 12 16.1
2014-Aug-27 15:12 339 6 gusting 12 16.1
2014-Aug-27 15:07 337 5 gusting 12 16.1
2014-Aug-27 15:02 005 5 gusting 14 16.7
2014-Aug-27 14:57 16.7
2014-Aug-27 14:52 342 6 gusting 14 16.7
2014-Aug-27 14:47 005 6 gusting 14 16.7
2014-Aug-27 14:42 355 6 gusting 14 16.7
2014-Aug-27 14:37 333 7 gusting 16 16.7
2014-Aug-27 14:32 16.7
2014-Aug-27 14:27 337 7 gusting 16 16.7
2014-Aug-27 14:22 344 6 gusting 13 16.7
2014-Aug-27 14:17 029 6 gusting 13 16.7
2014-Aug-27 14:12 355 6 gusting 13 16.7
2014-Aug-27 14:07 011 5 gusting 11 16.7
2014-Aug-27 14:02 327 5 gusting 19 16.7
2014-Aug-27 13:57 342 6 gusting 19 16.7
2014-Aug-27 13:52 321 8 gusting 19 16.7
2014-Aug-27 13:47 005 8 gusting 19 17.2
2014-Aug-27 13:42 005 6 gusting 15 17.2
2014-Aug-27 13:37 355 6 gusting 15 17.2
2014-Aug-27 13:32 340 6 gusting 12 16.7
2014-Aug-27 13:27 349 6 gusting 12 16.7
2014-Aug-27 13:22 16.7
2014-Aug-27 13:17 014 5 gusting 12 16.1
2014-Aug-27 13:12 325 4 gusting 10 16.1
2014-Aug-27 13:07 015 4 gusting 10 16.1
2014-Aug-27 13:02 344 5 gusting 10 16.1
2014-Aug-27 12:57 15.6
2014-Aug-27 12:52 340 4 gusting 8 15.6
2014-Aug-27 12:47 026 3 gusting 8 15.6
2014-Aug-27 12:42 340 3 gusting 8 15.6
2014-Aug-27 12:37 331 4 gusting 10 15.6
2014-Aug-27 12:32 355 4 gusting 10 15.6
2014-Aug-27 12:27 005 5 gusting 10 15.6
2014-Aug-27 12:22 350 4 gusting 12 15.6
2014-Aug-27 12:17 355 5 gusting 14 15.6
2014-Aug-27 12:12 317 6 gusting 14 15.6
2014-Aug-27 12:07 005 6 gusting 14 16.1
2014-Aug-27 12:02 009 6 gusting 13 16.1
2014-Aug-27 11:57 005 6 gusting 13 16.7
2014-Aug-27 11:52 005 6 gusting 13 17.2
2014-Aug-27 11:47 336 6 gusting 13 17.2
2014-Aug-27 11:42 17.8
2014-Aug-27 11:37 013 7 gusting 14 17.8
2014-Aug-27 11:32 017 7 gusting 14 17.8
2014-Aug-27 11:27 017 6 gusting 14 17.2
2014-Aug-27 11:22 17.2
2014-Aug-27 11:17 348 6 gusting 15 17.2
2014-Aug-27 11:12 349 6 gusting 16 16.7
2014-Aug-27 11:07 005 6 gusting 16 16.7
2014-Aug-27 11:02 16.7
2014-Aug-27 10:57 348 8 gusting 16 16.7
2014-Aug-27 10:52 024 6 gusting 13 16.7
2014-Aug-27 10:47 342 6 gusting 12 16.7
2014-Aug-27 10:42 336 6 gusting 12 16.7
2014-Aug-27 10:37 021 5 gusting 11 16.1
2014-Aug-27 10:32 009 6 gusting 14 15.6
2014-Aug-27 10:27 355 5 gusting 14 15.6
2014-Aug-27 10:22 346 6 gusting 14 15.6
2014-Aug-27 10:17 333 6 gusting 13 15.6
2014-Aug-27 10:12 355 6 gusting 13 15.6
2014-Aug-27 10:07 011 6 gusting 14 15.6
2014-Aug-27 10:02 023 6 gusting 14 16.1
2014-Aug-27 09:57 015 6 gusting 14 16.1
2014-Aug-27 09:52 355 5 gusting 12 16.1
2014-Aug-27 09:47 015 4 gusting 10 16.1
2014-Aug-27 09:42 038 3 gusting 9 15.6
2014-Aug-27 09:37 005 4 gusting 10 15.6
2014-Aug-27 09:32 038 6 gusting 11 15.0
2014-Aug-27 09:27 016 6 gusting 11 15.6
2014-Aug-27 09:22 015 4 gusting 9 15.6
2014-Aug-27 09:17 333 4 gusting 12 15.6
2014-Aug-27 09:12 355 4 gusting 12 15.6
2014-Aug-27 09:07 005 5 gusting 12 15.6
2014-Aug-27 09:02 021 6 gusting 12 15.6
2014-Aug-27 08:57 343 4 gusting 12 16.1
2014-Aug-27 08:52 017 5 gusting 13 15.6
2014-Aug-27 08:47 025 6 gusting 13 15.6
2014-Aug-27 08:42 345 6 gusting 13 15.6
2014-Aug-27 08:37 338 4 gusting 13 15.0
2014-Aug-27 08:32 009 6 gusting 13 15.0
2014-Aug-27 08:27 032 6 gusting 13 15.0
2014-Aug-27 08:22 019 6 gusting 13 15.0
2014-Aug-27 08:17 355 5 gusting 13 15.0
2014-Aug-27 08:12 355 4 gusting 9 15.0
2014-Aug-27 08:07 324 5 gusting 9 15.0
2014-Aug-27 08:02 005 4 gusting 9 15.0
2014-Aug-27 07:57 005 4 gusting 9 14.4
2014-Aug-27 07:52 355 4 gusting 9 14.4
2014-Aug-27 07:47 011 4 gusting 11 13.9
2014-Aug-27 07:42 309 5 gusting 11 13.9
2014-Aug-27 07:37 343 6 gusting 11 13.9
2014-Aug-27 07:32 322 5 gusting 9 13.9
2014-Aug-27 07:27 355 4 gusting 9 13.9
2014-Aug-27 07:22 015 4 gusting 10 13.9
2014-Aug-27 07:17 333 4 gusting 10 13.9
2014-Aug-27 07:12 026 5 gusting 9 13.9
2014-Aug-27 07:07 339 5 gusting 9 13.9
2014-Aug-27 07:02 011 5 gusting 9 13.9
2014-Aug-27 06:57 355 5 gusting 9 13.9
2014-Aug-27 06:52 017 4 gusting 9 13.9
2014-Aug-27 06:47 019 4 gusting 8 13.9
2014-Aug-27 06:42 011 4 gusting 8 13.3
2014-Aug-27 06:37 014 3 gusting 8 13.9
2014-Aug-27 06:32 338 2 gusting 8 13.9
2014-Aug-27 06:27 016 2 gusting 8 13.3
2014-Aug-27 06:22 017 3 gusting 8 13.3
2014-Aug-27 06:17 350 3 gusting 8 13.3
2014-Aug-27 06:12 331 3 gusting 6 13.3
2014-Aug-27 06:07 005 2 gusting 6 13.3
2014-Aug-27 06:02 350 2 gusting 8 13.3
2014-Aug-27 05:57 014 3 gusting 8 13.3
2014-Aug-27 05:52 014 3 gusting 8 13.3
2014-Aug-27 05:47 009 4 gusting 9 13.3
2014-Aug-27 05:42 024 3 gusting 10 13.3
2014-Aug-27 05:37 13.3
2014-Aug-27 05:32 005 4 gusting 9 13.3
2014-Aug-27 05:27 344 3 gusting 9 13.3
2014-Aug-27 05:22 338 3 gusting 6 13.3
2014-Aug-27 05:17 346 4 gusting 6 12.8
2014-Aug-27 05:12 347 3 gusting 6 12.8
2014-Aug-27 05:07 011 3 gusting 6 12.8
2014-Aug-27 05:02 12.8
2014-Aug-27 04:57 005 2 gusting 6 12.8
2014-Aug-27 04:52 350 3 gusting 6 12.8
2014-Aug-27 04:47 350 3 gusting 6 12.8
2014-Aug-27 04:42 011 2 gusting 6 12.8
2014-Aug-27 04:37 026 2 gusting 6 12.8
2014-Aug-27 04:32 005 2 gusting 6 12.8
2014-Aug-27 04:27 345 2 gusting 6 12.8
2014-Aug-27 04:22 017 2 gusting 8 12.8
2014-Aug-27 04:17 343 3 gusting 9 12.8
2014-Aug-27 04:12 019 4 gusting 9 12.8
2014-Aug-27 04:07 017 4 gusting 7 12.8
2014-Aug-27 04:02 005 3 gusting 6 12.8
2014-Aug-27 03:57 016 3 gusting 6 12.8
2014-Aug-27 03:52 021 3 gusting 6 12.8
2014-Aug-27 03:47 350 3 gusting 6 12.8
2014-Aug-27 03:42 348 3 gusting 6 12.8
2014-Aug-27 03:37 355 3 gusting 6 12.8
2014-Aug-27 03:32 319 2 gusting 6 12.8
2014-Aug-27 03:27 334 2 gusting 6 12.8
2014-Aug-27 03:22 349 3 gusting 5 12.8
2014-Aug-27 03:17 349 2 gusting 6 12.8
2014-Aug-27 03:12 12.8
2014-Aug-27 03:07 005 2 gusting 6 12.8
2014-Aug-27 03:02 311 2 gusting 6 12.2
2014-Aug-27 02:57 350 2 gusting 6 12.2
2014-Aug-27 02:52 348 2 gusting 7 12.8
2014-Aug-27 02:47 330 3 gusting 7 12.8
2014-Aug-27 02:42 024 3 gusting 10 12.8
2014-Aug-27 02:37 12.8
2014-Aug-27 02:32 12.8
2014-Aug-27 02:27 12.8
2014-Aug-27 02:17 018 3 gusting 7 12.8
2014-Aug-27 02:12 005 2 gusting 6 12.8
2014-Aug-27 02:07 12.8
2014-Aug-27 02:02 350 2 gusting 5 12.8
2014-Aug-27 01:57 342 2 gusting 5 12.8
2014-Aug-27 01:52 12.8
2014-Aug-27 01:47 351 1 gusting 5 12.8
2014-Aug-27 01:42 351 2 gusting 5 12.8
2014-Aug-27 01:37 355 1 gusting 4 12.8
2014-Aug-27 01:32 12.8
2014-Aug-27 01:27 12.8
2014-Aug-27 01:22 349 1 gusting 4 12.8
2014-Aug-27 01:17 350 1 gusting 4 12.8
2014-Aug-27 01:12 350 1 gusting 5 12.8
2014-Aug-27 01:07 12.8
2014-Aug-27 01:02 344 2 gusting 5 12.8
2014-Aug-27 00:57 12.8
2014-Aug-27 00:52 013 2 gusting 5 12.8
2014-Aug-27 00:47 12.8
2014-Aug-27 00:42 12.8
2014-Aug-27 00:37 332 1 gusting 7 12.8
2014-Aug-27 00:32 12.8
2014-Aug-27 00:27 016 1 gusting 6 12.8
2014-Aug-27 00:22 005 1 gusting 6 12.8
2014-Aug-27 00:17 320 0 gusting 6 12.8
2014-Aug-27 00:12 300 1 gusting 7 12.8
2014-Aug-27 00:07 321 2 gusting 7 12.8
2014-Aug-27 00:02 12.8
2014-Aug-26 23:57 325 3 gusting 7 12.8
2014-Aug-26 23:52 349 3 gusting 7 12.8
2014-Aug-26 23:47 331 2 gusting 8 12.8
2014-Aug-26 23:42 336 2 gusting 8 12.8
2014-Aug-26 23:37 335 2 gusting 8 12.8
2014-Aug-26 23:32 355 2 gusting 10 12.8
2014-Aug-26 23:27 351 2 gusting 10 12.8
2014-Aug-26 23:22 12.8
2014-Aug-26 23:17 013 3 gusting 10 12.8
2014-Aug-26 23:12 329 3 gusting 8 12.8
2014-Aug-26 23:07 005 3 gusting 8 12.8
2014-Aug-26 23:02 336 3 gusting 8 12.8
2014-Aug-26 22:57 339 3 gusting 8 12.8
2014-Aug-26 22:52 347 3 gusting 8 12.8
2014-Aug-26 22:47 12.8
2014-Aug-26 22:42 12.8
2014-Aug-26 22:37 12.8
2014-Aug-26 22:32 349 3 gusting 9 12.8
2014-Aug-26 22:27 12.8
2014-Aug-26 22:22 335 3 gusting 10 12.8
2014-Aug-26 22:17 005 3 gusting 10 12.8
2014-Aug-26 22:12 345 3 gusting 8 12.8
2014-Aug-26 22:07 324 3 gusting 9 12.8
2014-Aug-26 22:02 011 4 gusting 9 12.8
2014-Aug-26 21:57 022 5 gusting 9 12.8
2014-Aug-26 21:52 351 5 gusting 9 12.8
2014-Aug-26 21:47 009 5 gusting 10 12.8
2014-Aug-26 21:42 005 4 gusting 10 12.8
2014-Aug-26 21:37 005 4 gusting 10 12.8
2014-Aug-26 21:32 012 3 gusting 7 12.8
2014-Aug-26 21:27 350 3 gusting 7 12.8
2014-Aug-26 21:22 005 3 gusting 7 12.8
2014-Aug-26 21:17 355 3 gusting 6 12.8
2014-Aug-26 21:12 348 3 gusting 6 12.8
2014-Aug-26 21:07 351 3 gusting 9 12.8
2014-Aug-26 21:02 325 3 gusting 9 12.8
2014-Aug-26 20:57 340 3 gusting 9 12.8
2014-Aug-26 20:52 009 3 gusting 7 12.8
2014-Aug-26 20:47 355 3 gusting 7 12.8
2014-Aug-26 20:42 12.8
2014-Aug-26 20:37 346 3 gusting 6 12.8
2014-Aug-26 20:32 344 2 gusting 7 12.8
2014-Aug-26 20:27 329 2 gusting 7 12.8
2014-Aug-26 20:22 009 2 gusting 7 12.8
2014-Aug-26 20:17 355 3 gusting 7 12.8
2014-Aug-26 20:12 347 3 gusting 7 12.8
2014-Aug-26 20:07 348 3 gusting 7 12.8
2014-Aug-26 20:02 355 2 gusting 7 12.8
2014-Aug-26 19:57 022 3 gusting 7 12.8
2014-Aug-26 19:52 336 3 gusting 7 12.8
2014-Aug-26 19:47 350 3 gusting 6 12.8
2014-Aug-26 19:42 355 2 gusting 6 12.8
2014-Aug-26 19:37 005 3 gusting 6 12.8
2014-Aug-26 19:32 005 3 gusting 6 12.8
2014-Aug-26 19:27 12.8
2014-Aug-26 19:22 350 2 gusting 6 12.8
2014-Aug-26 19:17 351 2 gusting 6 12.8
2014-Aug-26 19:12 355 2 gusting 5 12.8
2014-Aug-26 19:07 005 2 gusting 5 12.8
2014-Aug-26 19:02 337 3 gusting 8 12.8
2014-Aug-26 18:57 005 3 gusting 8 12.8
2014-Aug-26 18:52 348 3 gusting 8 12.8
2014-Aug-26 18:47 345 3 gusting 8 12.8
2014-Aug-26 18:42 350 3 gusting 8 12.8
2014-Aug-26 18:37 345 3 gusting 8 13.3
2014-Aug-26 18:32 355 3 gusting 7 13.3
2014-Aug-26 18:27 345 3 gusting 7 13.3
2014-Aug-26 18:22 332 3 gusting 7 13.3
2014-Aug-26 18:17 350 3 gusting 7 13.3
2014-Aug-26 18:12 336 2 gusting 6 13.3
2014-Aug-26 18:07 355 3 gusting 6 13.3
2014-Aug-26 18:02 13.3
2014-Aug-26 17:57 345 1 gusting 5 13.3
2014-Aug-26 17:52 342 2 gusting 5 13.3
2014-Aug-26 17:47 13.3
2014-Aug-26 17:42 355 2 gusting 6 13.3
2014-Aug-26 17:37 13.3
2014-Aug-26 17:32 339 3 gusting 7 13.3
2014-Aug-26 17:27 355 3 gusting 7 13.3
2014-Aug-26 17:22 355 3 gusting 6 13.3
2014-Aug-26 17:17 005 3 gusting 7 13.3
2014-Aug-26 17:12 13.3
2014-Aug-26 17:07 011 3 gusting 11 13.3
2014-Aug-26 17:02 005 4 gusting 12 13.3
2014-Aug-26 16:57 011 4 gusting 12 13.3
2014-Aug-26 16:52 015 4 gusting 16 13.3
2014-Aug-26 16:47 005 5 gusting 16 13.3
2014-Aug-26 16:42 059 4 gusting 16 13.3
2014-Aug-26 16:37 052 2 gusting 7 13.9
2014-Aug-26 16:32 022 2 gusting 10 13.9
2014-Aug-26 16:27 019 3 gusting 10 13.9
2014-Aug-26 16:22 355 4 gusting 11 13.9
2014-Aug-26 16:17 346 4 gusting 11 13.9
2014-Aug-26 16:12 355 5 gusting 11 13.9
2014-Aug-26 16:07 345 5 gusting 10 13.9
2014-Aug-26 16:02 019 5 gusting 12 13.9
2014-Aug-26 15:57 355 5 gusting 12 13.9
2014-Aug-26 15:52 344 5 gusting 12 13.9
2014-Aug-26 15:47 340 5 gusting 12 13.9
2014-Aug-26 15:42 340 5 gusting 12 13.9
2014-Aug-26 15:37 005 5 gusting 10 13.9
2014-Aug-26 15:32 005 5 gusting 11 13.9
2014-Aug-26 15:27 005 5 gusting 11 13.9
2014-Aug-26 15:22 022 4 gusting 8 13.9
2014-Aug-26 15:17 340 4 gusting 9 13.9
2014-Aug-26 15:12 005 5 gusting 9 13.9
2014-Aug-26 15:07 334 5 gusting 9 13.9
2014-Aug-26 15:02 346 4 gusting 10 13.3
2014-Aug-26 14:57 355 4 gusting 10 13.3
2014-Aug-26 14:52 005 4 gusting 10 13.3
2014-Aug-26 14:47 340 5 gusting 12 13.9
2014-Aug-26 14:42 347 5 gusting 12 13.9
2014-Aug-26 14:37 011 4 gusting 12 13.9
2014-Aug-26 14:32 355 5 gusting 10 13.9
2014-Aug-26 14:27 13.9
2014-Aug-26 14:22 333 4 gusting 10 13.9
2014-Aug-26 14:17 349 3 gusting 9 13.9
2014-Aug-26 14:12 13.9
2014-Aug-26 14:07 355 4 gusting 9 13.9
2014-Aug-26 14:02 13.9
2014-Aug-26 13:57 012 4 gusting 8 13.9
2014-Aug-26 13:52 012 3 gusting 8 13.9
2014-Aug-26 13:47 337 3 gusting 8 13.9
2014-Aug-26 13:42 351 4 gusting 13 13.9
2014-Aug-26 13:37 13.9
2014-Aug-26 13:32 005 5 gusting 10 13.9
2014-Aug-26 13:27 022 4 gusting 10 13.9
2014-Aug-26 13:22 347 4 gusting 10 13.9
2014-Aug-26 13:17 14.4
2014-Aug-26 13:12 005 5 gusting 13 14.4
2014-Aug-26 13:07 010 5 gusting 13 14.4
2014-Aug-26 13:02 011 6 gusting 10 14.4
2014-Aug-26 12:57 010 5 gusting 10 15.0
2014-Aug-26 12:52 350 5 gusting 14 15.0
2014-Aug-26 12:47 023 6 gusting 15 15.6
2014-Aug-26 12:42 026 8 gusting 15 15.6
2014-Aug-26 12:37 030 7 gusting 15 16.1
2014-Aug-26 12:32 027 6 gusting 15 16.7
2014-Aug-26 12:27 010 6 gusting 15 16.7
2014-Aug-26 12:22 015 6 gusting 13 16.7
2014-Aug-26 12:17 023 6 gusting 16 16.7
2014-Aug-26 12:12 013 7 gusting 16 16.7
2014-Aug-26 12:07 020 6 gusting 16 16.7
2014-Aug-26 12:02 022 6 gusting 15 16.7
2014-Aug-26 11:57 012 6 gusting 15 16.7
2014-Aug-26 11:52 028 6 gusting 18 16.7
2014-Aug-26 11:47 036 6 gusting 18 16.7
2014-Aug-26 11:42 022 5 gusting 18 17.2
2014-Aug-26 11:37 011 3 gusting 10 16.7
2014-Aug-26 11:32 340 4 gusting 13 16.7
2014-Aug-26 11:27 028 6 gusting 13 16.7
2014-Aug-26 11:22 022 7 gusting 13 16.7
2014-Aug-26 11:17 018 6 gusting 13 17.2
2014-Aug-26 11:12 012 3 gusting 12 17.2
2014-Aug-26 11:07 022 2 gusting 8 17.2
2014-Aug-26 11:02 063 4 gusting 10 17.2
2014-Aug-26 10:57 018 4 gusting 10 17.2
2014-Aug-26 10:52 022 5 gusting 9 17.2
2014-Aug-26 10:47 010 4 gusting 9 17.2
2014-Aug-26 10:42 005 3 gusting 12 16.7
2014-Aug-26 10:37 033 4 gusting 13 16.7
2014-Aug-26 10:32 022 5 gusting 13 16.7
2014-Aug-26 10:27 017 4 gusting 13 17.2
2014-Aug-26 10:22 028 4 gusting 10 17.2
2014-Aug-26 10:17 059 3 gusting 10 17.2
2014-Aug-26 10:12 046 3 gusting 10 16.7
2014-Aug-26 10:07 032 5 gusting 10 16.7
2014-Aug-26 10:02 011 5 gusting 11 16.7
2014-Aug-26 09:57 039 5 gusting 11 16.7
2014-Aug-26 09:52 017 6 gusting 11 16.1
2014-Aug-26 09:47 022 5 gusting 11 16.1
2014-Aug-26 09:42 020 5 gusting 11 16.1
2014-Aug-26 09:37 024 5 gusting 11 16.1
2014-Aug-26 09:32 023 5 gusting 11 16.1
2014-Aug-26 09:27 032 5 gusting 11 15.6
2014-Aug-26 09:22 046 4 gusting 11 15.6
2014-Aug-26 09:17 329 4 gusting 11 15.6
2014-Aug-26 09:12 026 4 gusting 11 15.0
2014-Aug-26 09:07 026 4 gusting 11 15.0
2014-Aug-26 09:02 334 4 gusting 12 15.0
2014-Aug-26 08:57 011 4 gusting 12 15.0
2014-Aug-26 08:52 351 5 gusting 12 15.0
2014-Aug-26 08:47 355 6 gusting 12 15.0
2014-Aug-26 08:42 355 6 gusting 11 15.0
2014-Aug-26 08:37 009 6 gusting 11 15.0
2014-Aug-26 08:32 014 5 gusting 9 15.6
2014-Aug-26 08:27 010 3 gusting 9 15.6
2014-Aug-26 08:22 040 3 gusting 8 15.6
2014-Aug-26 08:17 026 3 gusting 11 15.6
2014-Aug-26 08:12 017 4 gusting 11 15.6
2014-Aug-26 08:07 343 4 gusting 11 15.6
2014-Aug-26 08:02 005 3 gusting 7 15.6
2014-Aug-26 07:57 014 3 gusting 7 15.0
2014-Aug-26 07:52 15.0
2014-Aug-26 07:47 355 4 gusting 9 15.0
2014-Aug-26 07:42 081 3 gusting 9 15.0
2014-Aug-26 07:37 019 2 gusting 6 15.0
2014-Aug-26 07:32 009 2 gusting 6 14.4
2014-Aug-26 07:27 024 2 gusting 6 14.4
2014-Aug-26 07:22 026 2 gusting 7 14.4
2014-Aug-26 07:17 049 2 gusting 7 14.4
2014-Aug-26 07:12 061 2 gusting 9 14.4
2014-Aug-26 07:07 355 2 gusting 9 14.4
2014-Aug-26 07:02 035 3 gusting 8 14.4
2014-Aug-26 06:57 051 3 gusting 8 14.4
2014-Aug-26 06:52 017 4 gusting 8 14.4
2014-Aug-26 06:47 022 4 gusting 8 14.4
2014-Aug-26 06:42 13.9
2014-Aug-26 06:37 009 3 gusting 8 13.9
2014-Aug-26 06:32 022 2 gusting 8 13.9
2014-Aug-26 06:27 348 3 gusting 8 13.3
2014-Aug-26 06:22 347 3 gusting 9 13.3
2014-Aug-26 06:17 057 4 gusting 9 13.3
2014-Aug-26 06:12 047 5 gusting 9 13.3
2014-Aug-26 06:07 13.3
2014-Aug-26 06:02 024 4 gusting 13 12.8
2014-Aug-26 05:57 024 5 gusting 13 12.8
2014-Aug-26 05:52 020 5 gusting 13 12.8
2014-Aug-26 05:47 12.8
2014-Aug-26 05:42 005 4 gusting 10 12.8
2014-Aug-26 05:37 011 5 gusting 10 12.8
2014-Aug-26 05:32 355 5 gusting 12 12.8
2014-Aug-26 05:27 355 5 gusting 12 12.8
2014-Aug-26 05:22 023 6 gusting 12 12.8
2014-Aug-26 05:17 355 6 gusting 12 12.8
2014-Aug-26 05:12 005 6 gusting 12 12.8
2014-Aug-26 05:07 12.8
2014-Aug-26 05:02 010 6 gusting 15 12.8
2014-Aug-26 04:57 355 6 gusting 15 12.8
2014-Aug-26 04:52 345 6 gusting 13 12.8
2014-Aug-26 04:47 339 6 gusting 13 12.8
2014-Aug-26 04:42 015 6 gusting 13 12.8
2014-Aug-26 04:37 347 6 gusting 13 12.8
2014-Aug-26 04:32 011 6 gusting 13 12.8
2014-Aug-26 04:27 005 6 gusting 13 12.8
2014-Aug-26 04:22 010 4 gusting 16 12.8
2014-Aug-26 04:17 077 5 gusting 16 12.8
2014-Aug-26 04:12 12.8
2014-Aug-26 04:07 340 8 gusting 17 12.8
2014-Aug-26 04:02 355 8 gusting 15 12.8
2014-Aug-26 03:57 005 8 gusting 15 12.8
2014-Aug-26 03:52 034 8 gusting 15 12.8
2014-Aug-26 03:47 329 8 gusting 14 12.8
2014-Aug-26 03:42 335 6 gusting 14 12.8
2014-Aug-26 03:37 005 6 gusting 14 12.8
2014-Aug-26 03:32 026 7 gusting 21 12.8
2014-Aug-26 03:27 350 9 gusting 21 12.8
2014-Aug-26 03:22 323 8 gusting 15 12.8
2014-Aug-26 03:17 025 6 gusting 14 12.8
2014-Aug-26 03:12 350 7 gusting 14 12.8
2014-Aug-26 03:07 12.8
2014-Aug-26 03:02 351 7 gusting 15 12.8
2014-Aug-26 02:57 346 7 gusting 15 12.8
2014-Aug-26 02:52 298 7 gusting 13 12.8
2014-Aug-26 02:47 044 7 gusting 13 12.8
2014-Aug-26 02:42 336 6 gusting 16 12.8
2014-Aug-26 02:37 12.8
2014-Aug-26 02:32 340 6 gusting 15 12.8
2014-Aug-26 02:27 12.8
2014-Aug-26 02:22 355 9 gusting 17 12.8
2014-Aug-26 02:17 005 7 gusting 17 12.8
2014-Aug-26 02:12 005 6 gusting 17 12.8
2014-Aug-26 02:07 327 7 gusting 17 12.8
2014-Aug-26 02:02 005 7 gusting 15 12.8
2014-Aug-26 01:57 350 6 gusting 15 12.8
2014-Aug-26 01:52 355 6 gusting 15 12.8
2014-Aug-26 01:47 12.8
2014-Aug-26 01:42 015 6 gusting 15 12.8
2014-Aug-26 01:37 017 6 gusting 13 12.8
2014-Aug-26 01:32 011 7 gusting 14 12.8
2014-Aug-26 01:27 022 7 gusting 14 12.8
2014-Aug-26 01:22 355 7 gusting 14 12.8
2014-Aug-26 01:17 005 7 gusting 14 12.8
2014-Aug-26 01:12 005 6 gusting 13 12.8
2014-Aug-26 01:07 348 6 gusting 13 12.8
2014-Aug-26 01:02 350 7 gusting 13 12.8
2014-Aug-26 00:57 019 6 gusting 13 12.8
2014-Aug-26 00:52 009 6 gusting 13 12.8
2014-Aug-26 00:47 355 6 gusting 13 12.8
2014-Aug-26 00:42 012 7 gusting 13 12.8
2014-Aug-26 00:37 010 6 gusting 13 12.8
2014-Aug-26 00:32 012 6 gusting 10 12.8
2014-Aug-26 00:27 328 6 gusting 10 12.8
2014-Aug-26 00:22 341 6 gusting 11 12.8
2014-Aug-26 00:17 355 6 gusting 12 12.8
2014-Aug-26 00:12 12.8
2014-Aug-26 00:07 012 6 gusting 12 12.8
2014-Aug-26 00:02 334 5 gusting 10 12.8
2014-Aug-25 23:57 005 5 gusting 10 12.8
2014-Aug-25 23:52 005 5 gusting 12 12.8
2014-Aug-25 23:47 005 5 gusting 12 12.8
2014-Aug-25 23:42 347 5 gusting 12 12.8
2014-Aug-25 23:37 355 6 gusting 9 12.8
2014-Aug-25 23:32 350 5 gusting 9 12.8
2014-Aug-25 23:27 348 5 gusting 9 12.8
2014-Aug-25 23:22 350 5 gusting 9 12.8
2014-Aug-25 23:17 011 5 gusting 10 12.8
2014-Aug-25 23:12 030 5 gusting 10 12.8
2014-Aug-25 23:07 342 6 gusting 13 12.8
2014-Aug-25 23:02 12.8